Location: Unspecified
(0.0000°N, 0.0000°E)
Time: 09:43:00
(UTC+00:00)

Vanguard 2 - Pass Details

Date: 29 October 2021
Orbit: 554 x 2936 km, 32.9° (Epoch: 06 December)

Event Time Altitude Azimuth Distance (km) Brightness Sun altitude
Rises 16:06:29 0° 206° (SSW) 4,724 12.1 23.6°
Reaches altitude 10° 16:11:05 10° 186° (S) 4,192 11.6 22.5°
Maximum altitude 16:18:07 17° 149° (SSE) 4,224 11.2 20.8°
Drops below altitude 10° 16:26:47 10° 114° (ESE) 5,353 11.4 18.7°
Sets 16:34:00 0° 97° (E) 6,662 11.7 16.9°
